sat.trackr.live / text

‹ back to catalog

STARLINK-30918

NORAD 58365 · 2023-177Q

PAYLOAD ACTIVE UNKNOWN

§ Identity

Operator
Country
US
Launch date
2023-11-18
Launch site
AFETR
Launch vehicle
Mass (kg)
RCS (m²)

Purposes: comms

External: N2YO · Heavens-Above · Gunter

§ Orbital elements

Epoch: 2026-09-20T06:21:27.632160Z

Period
94.26 min
Inclination
43.0042°
Eccentricity
0.0001203
Mean motion
15.27628615 rev/d
Perigee alt
482.1 km
Apogee alt
483.7 km
Semi-major
6,861.0 km
B*
-4.4385e-4
RAAN
331.8814°
Arg perigee
224.6381°
Mean anomaly
135.4374°
Rev number
15,797

§ Raw data

STARLINK-309181 58365U 23177Q   26263.26490315 -.00012474  00000+0 -44385-3 0  99922 58365  43.0042 331.8814 0001203 224.6381 135.4374 15.27628615157971

JSON: /api/v1/satellites/58365 · /tle

For live sub-satellite position, see the globe view (requires WebGL).

§ Visibility from observer

Set your observer location to see the next 7 days of passes ≥ 10°. The values pass through the URL so the page stays shareable.

No JS? Fill the form by hand. The geolocation button needs JavaScript.